This demonstration page uses our WeatherBlox Daily Observations layout. Learn more.

Left ArrowRight Arrow

33.98154, -81.23621

Hourly Observations for May 23, 2022

Temp ( °F °C ) Dew Point ( °F °C ) Humidity (%) Winds ( mph kmh ) Pressure ( in mb ) Visibility ( mi km ) Precip ( " mm )
12:56 am 00:56 Mostly Clear 73 22.8 65 18.3 76 76 W 5 7 30.16 1021 10 16 0.00 0.00
1:56 am 01:56 Mostly Clear 73 22.8 66 18.9 79 79 Calm 30.15 1021 10 16 0.00 0.00
2:56 am 02:56 Clear 71 21.7 66 18.9 84 84 SW 3 6 30.14 1021 10 16 0.00 0.00
3:56 am 03:56 Clear 71 21.7 66 18.9 84 84 Calm 30.11 1020 10 16 0.00 0.00
4:56 am 04:56 Clear 69 20.6 66 18.9 90 90 S 6 9 30.12 1020 9 14 0.00 0.00
5:56 am 05:56 Mostly Clear 70 21.1 66 18.9 87 87 Calm 30.11 1020 10 16 0.00 0.00
6:56 am 06:56 Mostly Cloudy 69 20.6 66 18.9 90 90 Calm 30.11 1020 10 16 0.00 0.00
7:56 am 07:56 Mostly Cloudy 71 21.7 67 19.4 87 87 SE 3 6 30.11 1020 10 16 0.00 0.00
8:56 am 08:56 Mostly Cloudy 75 23.9 67 19.4 76 76 SSW 6 9 30.11 1020 10 16 0.00 0.00
9:56 am 09:56 Mostly Cloudy 78 25.6 68 20 71 71 S 5 7 30.12 1020 10 16 0.00 0.00
10:56 am 10:56 Mostly Cloudy 79 26.1 70 21.1 74 74 SSW 12 19 30.13 1020 10 16 0.00 0.00
11:56 am 11:56 Mostly Cloudy 79 26.1 70 21.1 74 74 SSW 10 17 30.14 1021 10 16 0.00 0.00
12:41 pm 12:41 Cloudy 72 22.2 64 17.8 76 76 W 14 22 30.16 1021 10 16 0.00 0.00
12:46 pm 12:46 Cloudy with Heavy Rain 70 21.1 66 18.9 87 87 WSW 16 26 30.16 1021 2 2 0.03 0.76
12:56 pm 12:56 Cloudy with Light Rain 69 20.6 67 19.4 93 93 NW 7 11 30.11 1020 3 5 0.22 5.59
1:56 pm 13:56 Mostly Cloudy 74 23.3 68 20 82 82 Calm 30.09 1019 10 16 0.01 0.25
2:56 pm 14:56 Mostly Cloudy 77 25 70 21.1 79 79 SE 6 9 30.05 1018 10 16 0.00 0.00
3:56 pm 15:56 Mostly Cloudy 81 27.2 71 21.7 72 72 E 9 15 30.02 1017 10 16 0.00 0.00
4:56 pm 16:56 Mostly Cloudy 82 27.8 72 22.2 72 72 E 10 17 29.98 1015 10 16 0.00 0.00
5:56 pm 17:56 Cloudy 79 26.1 70 21.1 74 74 SW 3 6 30.00 1016 8 13 0.00 0.00
6:28 pm 18:28 Cloudy with Strong Thunderstorms 75 23.9 72 22.2 90 90 SSW 13 20 30.03 1017 3 5 0.10 2.54
6:30 pm 18:30 Cloudy with Strong Thunderstorms 73 23 72 22 94 94 S 33 54 30.04 1017 2 3 0.00 0.00
6:56 pm 18:56 Cloudy with Thunderstorms 70 21.1 69 20.6 97 97 SSW 14 22 30.05 1018 3 5 0.29 7.37
7:56 pm 19:56 Cloudy with Light Rain 70 21.1 67 19.4 90 90 S 9 15 30.04 1017 10 16 0.10 2.54
8:56 pm 20:56 Mostly Cloudy 69 20.6 67 19.4 93 93 S 13 20 30.05 1018 10 16 0.00 0.00
9:56 pm 21:56 Mostly Cloudy 69 20.6 67 19.4 93 93 SSW 5 7 30.04 1017 10 16 0.00 0.00
10:56 pm 22:56 Cloudy 69 20.6 67 19.4 93 93 SSW 7 11 30.04 1017 10 16 0.00 0.00
11:56 pm 23:56 Clear 69 20.6 67 19.4 93 93 SSW 7 11 30.01 1016 10 16 0.00 0.00

Powered by AerisWeather